Location: Newark
(48.6461°N, 4.3644°W)
Time: 00:03:14
(UTC+00:00)

deb Explorer IX - Pass Details

Date: 27 January 2020
Orbit: 549 x 1099 km, 38.8° (Epoch: 24 February)

Event Time Altitude Azimuth Distance (km) Brightness Sun altitude
Rises 20:23:15 0° 210° (SSW) 3,605 ? -32.3°
Reaches altitude 10° 20:26:32 10° 194° (SSW) 2,750 ? -32.8°
Enters shadow 20:26:58 11° 191° (S) 2,655 ? -32.9°
